TimeEDT,TemperatureF,Dew PointF,Humidity,Sea Level PressureIn,VisibilityMPH,Wind Direction,Wind SpeedMPH,Gust SpeedMPH,PrecipitationIn,Events,Conditions,WindDirDegrees,DateUTC
12:53 AM,52.0,44.1,74,30.02,10.0,Calm,Calm,-,N/A,,Scattered Clouds,0,2013-04-24 04:53:00
1:53 AM,51.1,43.0,74,30.02,10.0,Calm,Calm,-,N/A,,Scattered Clouds,0,2013-04-24 05:53:00
2:53 AM,50.0,44.1,80,30.02,10.0,Calm,Calm,-,N/A,,Scattered Clouds,0,2013-04-24 06:53:00
3:53 AM,46.9,43.0,86,30.02,10.0,Calm,Calm,-,N/A,,Mostly Cloudy,0,2013-04-24 07:53:00
4:53 AM,45.0,42.1,90,30.02,10.0,Calm,Calm,-,N/A,,Mostly Cloudy,0,2013-04-24 08:53:00
5:53 AM,46.9,43.0,86,30.01,10.0,Calm,Calm,-,N/A,,Mostly Cloudy,0,2013-04-24 09:53:00
6:53 AM,46.0,42.1,86,30.00,10.0,Calm,Calm,-,N/A,,Mostly Cloudy,0,2013-04-24 10:53:00
7:53 AM,51.1,46.0,83,29.99,10.0,North,3.5,-,N/A,,Mostly Cloudy,10,2013-04-24 11:53:00
8:53 AM,59.0,48.0,67,29.98,10.0,Calm,Calm,-,N/A,,Mostly Cloudy,0,2013-04-24 12:53:00
9:53 AM,66.0,48.9,54,29.95,10.0,Variable,5.8,-,N/A,,Mostly Cloudy,0,2013-04-24 13:53:00
10:53 AM,69.1,48.9,49,29.93,10.0,SSE,5.8,-,N/A,,Mostly Cloudy,150,2013-04-24 14:53:00
11:53 AM,71.1,51.1,49,29.98,10.0,WSW,10.4,-,N/A,,Overcast,250,2013-04-24 15:53:00
12:53 PM,72.0,50.0,46,29.96,10.0,SW,17.3,-,N/A,,Overcast,230,2013-04-24 16:53:00
1:53 PM,73.0,50.0,44,29.95,10.0,WSW,13.8,-,N/A,,Overcast,240,2013-04-24 17:53:00
2:53 PM,73.0,50.0,44,29.92,10.0,SSW,13.8,-,N/A,,Overcast,210,2013-04-24 18:53:00
3:26 PM,64.9,55.0,70,30.02,2.0,West,24.2,42.6,0.00,Rain,Rain,280,2013-04-24 19:26:00
3:40 PM,62.1,57.0,84,30.03,5.0,West,18.4,-,0.03,Rain,Light Rain,280,2013-04-24 19:40:00
3:53 PM,62.1,57.0,84,29.98,4.0,WSW,10.4,-,0.04,Rain,Light Rain,250,2013-04-24 19:53:00
4:53 PM,61.0,57.9,90,29.99,9.0,SSW,9.2,-,0.05,Rain,Light Rain,210,2013-04-24 20:53:00
5:10 PM,63.0,59.0,87,30.03,10.0,SW,11.5,-,0.00,,Overcast,220,2013-04-24 21:10:00
5:53 PM,64.0,59.0,84,29.98,10.0,SW,10.4,19.6,0.00,,Mostly Cloudy,230,2013-04-24 21:53:00
6:12 PM,64.0,57.9,80,30.02,10.0,SW,12.7,23.0,N/A,,Overcast,230,2013-04-24 22:12:00
6:53 PM,64.0,57.9,80,29.99,10.0,SW,11.5,-,N/A,,Overcast,230,2013-04-24 22:53:00
7:37 PM,62.1,57.9,86,30.02,1.0,West,12.7,-,0.03,Rain,Heavy Rain,260,2013-04-24 23:37:00
7:45 PM,61.0,57.9,90,30.02,3.0,WSW,12.7,-,0.14,Rain,Light Rain,250,2013-04-24 23:45:00
7:53 PM,60.1,57.0,90,29.99,4.0,West,20.7,27.6,0.16,Rain,Light Rain,270,2013-04-24 23:53:00
8:39 PM,55.0,50.0,83,30.07,10.0,NW,17.3,-,0.00,,Overcast,310,2013-04-25 00:39:00
8:53 PM,54.0,48.9,83,30.05,10.0,WNW,19.6,25.3,0.00,Rain,Light Rain,290,2013-04-25 00:53:00
9:53 PM,51.1,46.9,86,30.12,10.0,WSW,9.2,-,0.00,Rain,Light Rain,240,2013-04-25 01:53:00
10:53 PM,50.0,46.0,86,30.15,10.0,West,9.2,-,0.00,,Overcast,270,2013-04-25 02:53:00
11:53 PM,48.9,44.1,83,30.16,10.0,North,10.4,-,0.00,,Overcast,350,2013-04-25 03:53:00